QPF
0.00 0.00 0.00 0.00 0.00 0.00 0.00 0.01 0.01 0.01 0.01 0.02 0.02 0.02 0.02 0.03 0.04 0.04 0.05 0.05 0.05 0.07 0.11 0.06 0.10 0.11 0.11 0.12 0.11 0.10 0.08 0.08 0.09 0.09 0.08 0.03 0.01 0.01 0.01 0.01 0.01 0.02 0.02
0.00 0.00 0.00 0.00 0.00 0.00 0.00 0.00 0.01 0.01 0.01 0.02 0.02 0.02 0.02 0.03 0.03 0.03 0.05 0.06 0.07 0.09 0.08 0.11 0.10 0.10 0.12 0.13 0.13 0.13 0.11 0.09 0.10 0.11 0.10 0.08 0.05 0.03 0.01 0.01 0.01 0.02 0.03
0.00 0.00 0.00 0.00 0.00 0.00 0.00 0.00 0.01 0.01 0.01 0.01 0.01 0.01 0.02 0.02 0.03 0.04 0.05 0.06 0.08 0.08 0.07 0.09 0.11 0.11 0.12 0.15 0.15 0.13 0.14 0.14 0.12 0.12 0.13 0.12 0.11 0.07 0.03 0.01 0.01 0.01 0.03
0.00 0.00 0.00 0.00 0.00 0.00 0.00 0.00 0.00 0.01 0.01 0.01 0.01 0.01 0.01 0.02 0.04 0.06 0.07 0.06 0.06 0.05 0.06 0.12 0.13 0.14 0.14 0.15 0.12 0.11 0.14 0.15 0.13 0.11 0.12 0.14 0.14 0.13 0.09 0.06 0.04 0.02 0.02
0.00 0.00 0.00 0.00 0.00 0.00 0.00 0.00 0.00 0.01 0.01 0.01 0.02 0.02 0.02 0.02 0.02 0.03 0.08 0.07 0.05 0.04 0.03 0.08 0.10 0.12 0.13 0.11 0.09 0.09 0.10 0.10 0.10 0.11 0.11 0.12 0.13 0.13 0.11 0.10 0.09 0.06 0.04
0.00 0.00 0.00 0.00 0.00 0.00 0.00 0.00 0.00 0.00 0.01 0.01 0.02 0.02 0.02 0.02 0.01 0.01 0.03 0.03 0.05 0.04 0.04 0.05 0.07 0.07 0.06 0.07 0.07 0.08 0.09 0.09 0.09 0.10 0.09 0.10 0.12 0.12 0.12 0.09 0.08 0.07 0.05
0.00 0.00 0.00 0.00 0.00 0.00 0.00 0.00 0.00 0.00 0.00 0.00 0.01 0.01 0.02 0.02 0.01 0.01 0.01 0.03 0.03 0.03 0.05 0.05 0.06 0.05 0.06 0.06 0.08 0.09 0.08 0.08 0.08 0.10 0.09 0.09 0.09 0.12 0.14 0.13 0.11 0.09 0.07
0.00 0.00 0.00 0.00 0.00 0.00 0.00 0.00 0.00 0.00 0.00 0.01 0.01 0.01 0.01 0.01 0.01 0.01 0.01 0.02 0.04 0.04 0.04 0.06 0.05 0.05 0.05 0.05 0.07 0.08 0.08 0.07 0.07 0.06 0.07 0.07 0.06 0.07 0.08 0.11 0.12 0.09 0.07
0.00 0.00 0.00 0.00 0.00 0.00 0.00 0.00 0.00 0.01 0.01 0.01 0.01 0.02 0.02 0.01 0.01 0.01 0.02 0.02 0.02 0.05 0.08 0.08 0.05 0.04 0.05 0.04 0.04 0.05 0.05 0.05 0.06 0.05 0.05 0.05 0.05 0.06 0.07 0.09 0.11 0.10 0.07
0.00 0.00 0.00 0.00 0.00 0.00 0.00 0.00 0.01 0.01 0.01 0.01 0.01 0.01 0.02 0.02 0.01 0.01 0.01 0.01 0.01 0.02 0.05 0.07 0.08 0.07 0.05 0.04 0.04 0.04 0.04 0.04 0.04 0.04 0.04 0.05 0.05 0.06 0.06 0.07 0.09 0.10 0.09
0.00 0.00 0.00 0.00 0.00 0.00 0.00 0.00 0.00 0.00 0.01 0.01 0.01 0.01 0.01 0.01 0.01 0.01 0.01 0.01 0.01 0.01 0.02 0.04 0.06 0.08 0.07 0.06 0.04 0.04 0.03 0.03 0.03 0.03 0.03 0.04 0.05 0.04 0.05 0.06 0.06 0.07 0.08
0.00 0.00 0.00 0.00 0.00 0.00 0.00 0.00 0.00 0.01 0.02 0.02 0.02 0.01 0.01 0.01 0.01 0.01 0.02 0.02 0.01 0.01 0.01 0.02 0.04 0.08 0.08 0.07 0.06 0.05 0.03 0.03 0.03 0.04 0.03 0.03 0.03 0.03 0.03 0.04 0.04 0.05 0.06
0.00 0.00 0.00 0.00 0.00 0.00 0.00 0.01 0.01 0.02 0.04 0.04 0.02 0.01 0.01 0.01 0.00 0.01 0.02 0.02 0.02 0.02 0.01 0.02 0.02 0.03 0.03 0.04 0.04 0.03 0.03 0.03 0.03 0.03 0.03 0.03 0.03 0.02 0.03 0.03 0.04 0.04 0.04
0.00 0.00 0.00 0.00 0.01 0.01 0.01 0.01 0.01 0.02 0.04 0.03 0.01 0.00 0.00 0.00 0.00 0.01 0.01 0.02 0.01 0.01 0.02 0.02 0.02 0.02 0.02 0.02 0.02 0.02 0.02 0.04 0.03 0.02 0.02 0.02 0.02 0.03 0.03 0.03 0.04 0.04 0.04
0.00 0.00 0.00 0.00 0.00 0.00 0.00 0.00 0.00 0.01 0.02 0.02 0.01 0.00 0.00 0.00 0.01 0.01 0.01 0.02 0.01 0.01 0.02 0.02 0.02 0.01 0.02 0.02 0.02 0.02 0.02 0.02 0.02 0.02 0.02 0.02 0.02 0.02 0.02 0.02 0.03 0.04 0.05
0.00 0.00 0.00 0.00 0.00 0.00 0.00 0.00 0.00 0.01 0.01 0.02 0.01 0.01 0.00 0.00 0.01 0.02 0.02 0.02 0.02 0.02 0.03 0.02 0.02 0.02 0.01 0.01 0.02 0.02 0.01 0.02 0.02 0.02 0.02 0.02 0.01 0.01 0.01 0.01 0.01 0.02 0.04
0.01 0.01 0.00 0.00 0.00 0.00 0.00 0.00 0.00 0.00 0.00 0.01 0.01 0.02 0.02 0.02 0.01 0.01 0.03 0.05 0.05 0.05 0.05 0.03 0.02 0.02 0.02 0.02 0.01 0.01 0.01 0.02 0.02 0.02 0.01 0.01 0.01 0.01 0.01 0.01 0.01 0.01 0.01
0.00 0.00 0.00 0.00 0.00 0.00 0.00 0.00 0.00 0.01 0.01 0.02 0.04 0.05 0.05 0.04 0.03 0.04 0.07 0.08 0.08 0.08 0.07 0.05 0.04 0.03 0.02 0.02 0.01 0.01 0.01 0.01 0.01 0.01 0.01 0.01 0.01 0.01 0.01 0.01 0.01 0.01 0.01
0.00 0.00 0.00 0.00 0.00 0.00 0.00 0.00 0.00 0.01 0.02 0.02 0.04 0.04 0.05 0.05 0.06 0.09 0.11 0.12 0.11 0.08 0.05 0.03 0.03 0.02 0.02 0.02 0.02 0.02 0.01 0.01 0.01 0.02 0.01 0.01 0.01 0.01 0.01 0.01 0.01 0.01 0.01
0.00 0.00 0.00 0.00 0.00 0.00 0.00 0.00 0.01 0.02 0.04 0.05 0.06 0.07 0.09 0.09 0.08 0.09 0.11 0.10 0.08 0.05 0.04 0.04 0.03 0.03 0.02 0.02 0.02 0.02 0.01 0.02 0.02 0.02 0.02 0.02 0.02 0.01 0.01 0.01 0.01 0.01 0.01
0.00 0.00 0.00 0.00 0.01 0.01 0.00 0.00 0.01 0.03 0.04 0.04 0.04 0.06 0.08 0.09 0.08 0.08 0.09 0.07 0.05 0.05 0.05 0.04 0.04 0.03 0.02 0.02 0.02 0.02 0.02 0.03 0.03 0.02 0.01 0.01 0.02 0.01 0.01 0.01 0.01 0.01 0.01
0.01 0.01 0.01 0.01 0.01 0.01 0.01 0.01 0.01 0.01 0.02 0.03 0.04 0.07 0.09 0.07 0.06 0.06 0.06 0.05 0.05 0.05 0.05 0.05 0.04 0.03 0.03 0.03 0.03 0.03 0.04 0.05 0.04 0.03 0.01 0.01 0.01 0.01 0.01 0.01 0.01 0.01 0.01
0.01 0.01 0.01 0.01 0.01 0.01 0.01 0.01 0.02 0.03 0.04 0.04 0.06 0.09 0.08 0.07 0.08 0.08 0.06 0.05 0.06 0.06 0.05 0.05 0.04 0.04 0.04 0.05 0.05 0.06 0.07 0.06 0.04 0.03 0.02 0.01 0.01 0.01 0.01 0.01 0.01 0.01 0.01
0.01 0.01 0.01 0.01 0.01 0.01 0.02 0.03 0.03 0.03 0.04 0.06 0.09 0.13 0.13 0.13 0.10 0.07 0.06 0.05 0.05 0.05 0.04 0.04 0.04 0.04 0.05 0.05 0.06 0.06 0.05 0.04 0.03 0.03 0.02 0.02 0.02 0.02 0.02 0.02 0.02 0.03 0.03
0.02 0.02 0.02 0.02 0.02 0.02 0.05 0.07 0.08 0.09 0.11 0.13 0.15 0.17 0.18 0.16 0.13 0.10 0.08 0.07 0.06 0.06 0.05 0.03 0.03 0.04 0.05 0.05 0.06 0.05 0.04 0.02 0.02 0.02 0.01 0.01 0.01 0.01 0.02 0.02 0.03 0.03 0.02
0.02 0.03 0.03 0.03 0.03 0.03 0.04 0.06 0.09 0.11 0.12 0.12 0.11 0.09 0.09 0.08 0.08 0.08 0.07 0.06 0.05 0.05 0.05 0.04 0.03 0.03 0.03 0.04 0.04 0.03 0.02 0.02 0.01 0.01 0.01 0.01 0.01 0.01 0.01 0.01 0.01 0.00 0.00
MSLP
1010.78 1011.19 1011.54 1011.83 1012.10 1012.37 1012.65 1012.97 1013.31 1013.66 1013.99 1014.29 1014.53 1014.71 1014.86 1014.98 1015.12 1015.30 1015.52 1015.79 1016.10 1016.42 1016.74 1017.03 1017.27 1017.47 1017.63 1017.74 1017.82 1017.87 1017.88 1017.84 1017.75 1017.59 1017.38 1017.11 1016.82 1016.52 1016.25 1016.03 1015.87 1015.78 1015.76
1010.45 1010.94 1011.37 1011.73 1012.04 1012.33 1012.62 1012.94 1013.28 1013.64 1014.00 1014.33 1014.61 1014.83 1015.00 1015.12 1015.22 1015.33 1015.47 1015.65 1015.87 1016.12 1016.39 1016.65 1016.89 1017.10 1017.28 1017.42 1017.52 1017.59 1017.62 1017.60 1017.54 1017.43 1017.25 1017.03 1016.76 1016.46 1016.16 1015.86 1015.59 1015.37 1015.20
1009.98 1010.55 1011.06 1011.50 1011.87 1012.20 1012.51 1012.84 1013.19 1013.57 1013.95 1014.32 1014.64 1014.89 1015.07 1015.19 1015.25 1015.30 1015.36 1015.45 1015.59 1015.77 1015.99 1016.23 1016.47 1016.69 1016.89 1017.05 1017.18 1017.27 1017.32 1017.34 1017.31 1017.25 1017.13 1016.96 1016.74 1016.47 1016.16 1015.82 1015.47 1015.13 1014.82
1009.35 1010.00 1010.59 1011.11 1011.55 1011.93 1012.27 1012.61 1012.98 1013.38 1013.79 1014.19 1014.56 1014.85 1015.05 1015.17 1015.22 1015.22 1015.22 1015.24 1015.30 1015.43 1015.61 1015.83 1016.07 1016.30 1016.52 1016.70 1016.85 1016.95 1017.02 1017.06 1017.07 1017.06 1017.00 1016.90 1016.75 1016.53 1016.24 1015.89 1015.50 1015.07 1014.66
1008.60 1009.31 1009.99 1010.58 1011.09 1011.51 1011.88 1012.24 1012.62 1013.04 1013.48 1013.92 1014.33 1014.67 1014.91 1015.05 1015.10 1015.09 1015.05 1015.03 1015.05 1015.13 1015.29 1015.49 1015.73 1015.98 1016.21 1016.40 1016.54 1016.65 1016.72 1016.78 1016.81 1016.84 1016.84 1016.82 1016.74 1016.59 1016.36 1016.04 1015.63 1015.17 1014.68
1007.79 1008.55 1009.29 1009.95 1010.51 1010.97 1011.37 1011.74 1012.13 1012.56 1013.02 1013.50 1013.95 1014.35 1014.64 1014.83 1014.91 1014.91 1014.86 1014.82 1014.83 1014.89 1015.03 1015.23 1015.46 1015.71 1015.93 1016.11 1016.25 1016.34 1016.40 1016.45 1016.49 1016.55 1016.61 1016.65 1016.65 1016.59 1016.43 1016.17 1015.80 1015.34 1014.82
1006.97 1007.77 1008.57 1009.28 1009.88 1010.36 1010.77 1011.14 1011.53 1011.96 1012.44 1012.95 1013.45 1013.90 1014.26 1014.50 1014.63 1014.66 1014.64 1014.61 1014.61 1014.67 1014.80 1014.99 1015.22 1015.45 1015.66 1015.82 1015.93 1015.99 1016.02 1016.04 1016.08 1016.15 1016.24 1016.35 1016.43 1016.45 1016.38 1016.20 1015.89 1015.48 1014.98
1006.22 1007.05 1007.88 1008.62 1009.24 1009.74 1010.15 1010.51 1010.88 1011.31 1011.79 1012.32 1012.86 1013.36 1013.77 1014.08 1014.27 1014.35 1014.37 1014.36 1014.38 1014.44 1014.57 1014.75 1014.96 1015.17 1015.35 1015.48 1015.55 1015.57 1015.56 1015.55 1015.57 1015.63 1015.74 1015.89 1016.03 1016.13 1016.16 1016.06 1015.85 1015.50 1015.07
1005.58 1006.43 1007.27 1008.03 1008.66 1009.15 1009.55 1009.89 1010.25 1010.66 1011.14 1011.67 1012.23 1012.77 1013.23 1013.59 1013.84 1013.97 1014.03 1014.05 1014.09 1014.16 1014.28 1014.45 1014.64 1014.83 1014.98 1015.08 1015.11 1015.08 1015.03 1014.98 1014.97 1015.02 1015.13 1015.29 1015.48 1015.65 1015.75 1015.75 1015.63 1015.38 1015.03
1005.07 1005.92 1006.76 1007.52 1008.14 1008.62 1008.99 1009.32 1009.65 1010.04 1010.51 1011.05 1011.61 1012.17 1012.67 1013.07 1013.35 1013.53 1013.62 1013.67 1013.72 1013.80 1013.92 1014.08 1014.26 1014.43 1014.56 1014.62 1014.62 1014.57 1014.48 1014.39 1014.35 1014.37 1014.47 1014.64 1014.84 1015.05 1015.21 1015.28 1015.25 1015.09 1014.83
1004.67 1005.50 1006.32 1007.05 1007.65 1008.11 1008.47 1008.78 1009.10 1009.47 1009.93 1010.46 1011.02 1011.59 1012.10 1012.52 1012.83 1013.03 1013.15 1013.23 1013.29 1013.37 1013.49 1013.65 1013.82 1013.98 1014.10 1014.16 1014.14 1014.07 1013.96 1013.85 1013.78 1013.78 1013.85 1014.00 1014.20 1014.42 1014.61 1014.73 1014.76 1014.69 1014.52
1004.34 1005.12 1005.89 1006.58 1007.14 1007.58 1007.92 1008.22 1008.54 1008.92 1009.37 1009.89 1010.46 1011.02 1011.54 1011.97 1012.29 1012.51 1012.65 1012.73 1012.81 1012.90 1013.03 1013.18 1013.36 1013.52 1013.64 1013.70 1013.70 1013.63 1013.52 1013.40 1013.32 1013.29 1013.33 1013.45 1013.62 1013.82 1014.01 1014.16 1014.23 1014.22 1014.13
1004.04 1004.73 1005.41 1006.03 1006.55 1006.96 1007.30 1007.61 1007.94 1008.34 1008.80 1009.33 1009.90 1010.46 1010.98 1011.41 1011.74 1011.97 1012.12 1012.22 1012.31 1012.41 1012.54 1012.71 1012.89 1013.06 1013.20 1013.28 1013.29 1013.25 1013.15 1013.04 1012.95 1012.90 1012.92 1013.00 1013.14 1013.30 1013.48 1013.62 1013.72 1013.75 1013.72
1003.75 1004.30 1004.86 1005.39 1005.84 1006.23 1006.57 1006.90 1007.27 1007.69 1008.19 1008.74 1009.32 1009.90 1010.42 1010.86 1011.19 1011.43 1011.59 1011.71 1011.81 1011.91 1012.05 1012.22 1012.41 1012.60 1012.75 1012.86 1012.90 1012.88 1012.82 1012.73 1012.65 1012.59 1012.58 1012.63 1012.72 1012.85 1012.99 1013.12 1013.22 1013.28 1013.30
1003.46 1003.84 1004.25 1004.66 1005.04 1005.40 1005.74 1006.10 1006.51 1006.99 1007.53 1008.11 1008.72 1009.31 1009.85 1010.30 1010.65 1010.90 1011.08 1011.20 1011.31 1011.43 1011.57 1011.73 1011.92 1012.11 1012.27 1012.40 1012.47 1012.48 1012.45 1012.39 1012.32 1012.27 1012.25 1012.27 1012.33 1012.43 1012.54 1012.65 1012.75 1012.83 1012.89
1003.21 1003.39 1003.64 1003.92 1004.22 1004.53 1004.87 1005.26 1005.72 1006.24 1006.83 1007.46 1008.10 1008.72 1009.27 1009.74 1010.11 1010.38 1010.58 1010.72 1010.83 1010.94 1011.07 1011.22 1011.40 1011.57 1011.73 1011.85 1011.94 1011.97 1011.97 1011.94 1011.90 1011.87 1011.85 1011.87 1011.91 1011.98 1012.07 1012.18 1012.28 1012.38 1012.48
1003.06 1003.05 1003.12 1003.26 1003.47 1003.74 1004.07 1004.48 1004.97 1005.53 1006.16 1006.83 1007.50 1008.14 1008.71 1009.21 1009.59 1009.89 1010.10 1010.25 1010.37 1010.47 1010.58 1010.70 1010.84 1010.97 1011.11 1011.22 1011.30 1011.35 1011.37 1011.37 1011.36 1011.36 1011.37 1011.39 1011.44 1011.51 1011.60 1011.70 1011.82 1011.94 1012.08
1003.07 1002.88 1002.80 1002.82 1002.94 1003.15 1003.46 1003.86 1004.36 1004.95 1005.59 1006.27 1006.96 1007.61 1008.20 1008.71 1009.12 1009.43 1009.66 1009.82 1009.94 1010.03 1010.10 1010.19 1010.27 1010.36 1010.45 1010.53 1010.60 1010.65 1010.69 1010.73 1010.76 1010.79 1010.83 1010.89 1010.96 1011.04 1011.14 1011.26 1011.39 1011.54 1011.70
1003.29 1002.97 1002.77 1002.69 1002.73 1002.88 1003.15 1003.52 1004.00 1004.56 1005.19 1005.86 1006.53 1007.17 1007.76 1008.28 1008.71 1009.04 1009.28 1009.46 1009.57 1009.64 1009.69 1009.73 1009.77 1009.80 1009.85 1009.89 1009.94 1010.00 1010.06 1010.12 1010.20 1010.28 1010.36 1010.46 1010.56 1010.67 1010.79 1010.92 1011.06 1011.22 1011.40
1003.73 1003.34 1003.06 1002.91 1002.89 1002.98 1003.19 1003.51 1003.93 1004.43 1005.00 1005.62 1006.24 1006.85 1007.43 1007.94 1008.37 1008.72 1008.98 1009.17 1009.29 1009.36 1009.39 1009.40 1009.40 1009.40 1009.41 1009.43 1009.47 1009.53 1009.61 1009.70 1009.82 1009.95 1010.08 1010.22 1010.36 1010.49 1010.63 1010.76 1010.90 1011.06 1011.23
1004.37 1003.96 1003.67 1003.48 1003.41 1003.44 1003.58 1003.82 1004.15 1004.57 1005.04 1005.57 1006.12 1006.67 1007.20 1007.69 1008.12 1008.48 1008.77 1008.98 1009.12 1009.21 1009.24 1009.25 1009.24 1009.22 1009.22 1009.23 1009.27 1009.34 1009.45 1009.58 1009.74 1009.90 1010.08 1010.25 1010.41 1010.56 1010.69 1010.82 1010.94 1011.07 1011.22
1005.15 1004.79 1004.52 1004.33 1004.23 1004.21 1004.27 1004.41 1004.63 1004.93 1005.28 1005.69 1006.14 1006.61 1007.08 1007.54 1007.96 1008.33 1008.65 1008.90 1009.08 1009.20 1009.27 1009.29 1009.30 1009.30 1009.31 1009.34 1009.40 1009.49 1009.62 1009.78 1009.96 1010.16 1010.35 1010.54 1010.70 1010.85 1010.97 1011.07 1011.16 1011.25 1011.34
1006.01 1005.73 1005.52 1005.35 1005.24 1005.17 1005.16 1005.20 1005.30 1005.46 1005.67 1005.95 1006.28 1006.66 1007.06 1007.48 1007.88 1008.27 1008.61 1008.90 1009.13 1009.30 1009.43 1009.51 1009.56 1009.60 1009.64 1009.70 1009.78 1009.90 1010.05 1010.22 1010.42 1010.62 1010.81 1010.98 1011.13 1011.25 1011.34 1011.40 1011.45 1011.49 1011.52
1006.87 1006.70 1006.56 1006.43 1006.32 1006.22 1006.14 1006.08 1006.06 1006.08 1006.16 1006.31 1006.52 1006.79 1007.12 1007.49 1007.87 1008.26 1008.62 1008.95 1009.24 1009.47 1009.66 1009.80 1009.91 1010.00 1010.08 1010.17 1010.28 1010.41 1010.56 1010.73 1010.91 1011.09 1011.25 1011.40 1011.51 1011.59 1011.64 1011.66 1011.67 1011.66 1011.65
1007.68 1007.62 1007.55 1007.47 1007.37 1007.24 1007.10 1006.96 1006.83 1006.74 1006.69 1006.72 1006.82 1006.99 1007.24 1007.55 1007.91 1008.28 1008.66 1009.02 1009.34 1009.63 1009.87 1010.06 1010.22 1010.35 1010.46 1010.57 1010.69 1010.81 1010.94 1011.08 1011.22 1011.35 1011.46 1011.56 1011.62 1011.66 1011.68 1011.67 1011.65 1011.63 1011.60
1008.41 1008.43 1008.43 1008.39 1008.30 1008.16 1007.99 1007.78 1007.57 1007.38 1007.24 1007.16 1007.16 1007.24 1007.42 1007.66 1007.97 1008.32 1008.69 1009.05 1009.39 1009.70 1009.96 1010.18 1010.36 1010.51 1010.63 1010.73 1010.83 1010.91 1011.00 1011.08 1011.15 1011.21 1011.26 1011.29 1011.31 1011.32 1011.32 1011.31 1011.30 1011.30 1011.30
Thickness
5827 5824 5819 5815 5810 5804 5797 5792 5787 5784 5779 5776 5772 5769 5767 5767 5766 5764 5761 5758 5757 5755 5753 5754 5752 5751 5750 5749 5750 5749 5748 5748 5749 5747 5748 5753 5756 5757 5756 5756 5756 5756 5755
5829 5825 5822 5818 5814 5808 5802 5797 5791 5788 5783 5780 5776 5773 5771 5770 5768 5766 5763 5760 5758 5756 5756 5754 5754 5753 5751 5750 5749 5748 5748 5748 5749 5746 5743 5743 5749 5752 5758 5757 5755 5755 5755
5833 5829 5825 5822 5819 5813 5808 5804 5798 5793 5788 5784 5781 5777 5773 5771 5770 5767 5765 5763 5761 5758 5757 5757 5756 5755 5753 5752 5750 5749 5746 5745 5747 5748 5744 5740 5739 5747 5754 5755 5756 5755 5754
5841 5836 5831 5827 5824 5820 5816 5809 5803 5797 5792 5787 5783 5779 5774 5771 5771 5770 5769 5766 5763 5762 5760 5758 5757 5756 5755 5753 5752 5753 5749 5746 5744 5747 5747 5746 5745 5740 5742 5750 5754 5754 5753
5847 5842 5838 5834 5831 5827 5821 5813 5806 5800 5795 5791 5787 5781 5779 5777 5776 5773 5770 5768 5767 5765 5763 5761 5758 5756 5756 5754 5753 5751 5749 5749 5746 5745 5746 5745 5744 5743 5739 5740 5745 5749 5752
5852 5848 5845 5839 5834 5830 5824 5818 5809 5803 5799 5794 5791 5785 5782 5779 5776 5773 5772 5771 5770 5768 5766 5764 5761 5758 5757 5755 5753 5751 5750 5749 5747 5746 5746 5744 5742 5742 5741 5739 5741 5742 5747
5853 5849 5844 5839 5834 5830 5826 5821 5813 5806 5802 5798 5794 5790 5786 5782 5778 5776 5775 5773 5773 5771 5768 5766 5762 5760 5758 5757 5754 5752 5751 5749 5747 5746 5746 5746 5745 5745 5743 5740 5740 5740 5744
5856 5852 5848 5843 5837 5833 5828 5823 5816 5809 5806 5801 5797 5794 5790 5787 5785 5781 5780 5777 5775 5774 5771 5767 5764 5762 5760 5758 5755 5753 5751 5749 5747 5747 5746 5745 5745 5745 5743 5740 5737 5736 5739
5855 5853 5849 5845 5840 5835 5830 5826 5818 5812 5808 5804 5799 5795 5792 5790 5788 5785 5781 5780 5776 5775 5771 5768 5765 5762 5760 5758 5755 5753 5750 5748 5746 5746 5745 5743 5744 5743 5742 5741 5738 5733 5730
5852 5850 5848 5845 5842 5838 5833 5827 5821 5814 5810 5806 5802 5798 5794 5791 5788 5786 5782 5779 5776 5773 5769 5766 5764 5761 5759 5757 5754 5752 5750 5747 5745 5743 5741 5740 5742 5740 5739 5738 5737 5735 5731
5847 5847 5845 5844 5842 5838 5833 5826 5820 5815 5811 5808 5804 5800 5795 5792 5789 5785 5782 5779 5776 5772 5768 5765 5762 5759 5757 5754 5752 5751 5748 5746 5744 5742 5740 5738 5737 5736 5736 5734 5733 5732 5729
5842 5842 5841 5839 5837 5834 5830 5825 5821 5816 5812 5809 5804 5800 5796 5793 5789 5786 5783 5779 5775 5772 5769 5765 5761 5758 5755 5752 5750 5748 5746 5744 5741 5739 5737 5735 5735 5732 5731 5730 5728 5727 5725
5834 5835 5834 5832 5830 5828 5826 5824 5820 5817 5813 5809 5803 5799 5796 5792 5788 5785 5782 5778 5774 5771 5768 5764 5760 5757 5753 5750 5748 5745 5743 5741 5739 5737 5734 5732 5729 5726 5726 5724 5724 5723 5723
5826 5827 5826 5825 5823 5822 5821 5820 5817 5816 5812 5807 5802 5798 5795 5792 5788 5785 5780 5776 5773 5769 5766 5763 5760 5756 5753 5749 5746 5743 5741 5738 5736 5734 5731 5729 5726 5723 5720 5719 5717 5716 5715
5818 5819 5819 5818 5818 5817 5816 5815 5814 5812 5809 5804 5800 5797 5795 5791 5787 5782 5778 5775 5771 5768 5764 5760 5757 5754 5751 5747 5744 5741 5738 5734 5732 5730 5728 5725 5720 5717 5715 5715 5713 5711 5710
5809 5811 5812 5812 5812 5811 5811 5810 5809 5807 5804 5800 5797 5795 5792 5788 5783 5778 5775 5771 5767 5764 5761 5756 5753 5749 5747 5741 5737 5736 5735 5731 5728 5725 5723 5720 5716 5712 5708 5705 5703 5702 5702
5800 5802 5804 5805 5806 5807 5807 5805 5804 5803 5799 5796 5794 5791 5788 5784 5780 5776 5771 5766 5763 5759 5755 5752 5748 5744 5740 5735 5731 5728 5729 5727 5724 5720 5717 5716 5714 5708 5706 5702 5698 5696 5693
5791 5794 5798 5799 5800 5802 5802 5801 5799 5797 5793 5790 5788 5786 5783 5778 5775 5771 5766 5762 5759 5755 5751 5748 5745 5740 5735 5729 5726 5723 5723 5722 5718 5715 5711 5708 5705 5703 5699 5698 5696 5693 5690
5784 5787 5791 5794 5794 5794 5794 5793 5792 5790 5787 5784 5782 5781 5778 5773 5768 5763 5760 5757 5753 5750 5746 5742 5739 5734 5729 5723 5720 5717 5718 5715 5712 5709 5705 5701 5697 5690 5688 5690 5689 5686 5684
5775 5777 5781 5784 5785 5785 5786 5784 5783 5781 5780 5779 5777 5775 5772 5767 5762 5758 5755 5752 5747 5744 5740 5736 5732 5728 5723 5715 5712 5710 5713 5709 5706 5702 5697 5691 5687 5682 5679 5682 5681 5678 5676
5764 5767 5769 5771 5773 5775 5775 5774 5773 5773 5773 5772 5769 5767 5765 5761 5758 5753 5749 5744 5740 5736 5732 5728 5724 5720 5715 5707 5703 5701 5705 5703 5699 5696 5692 5686 5677 5674 5672 5671 5672 5669 5667
5751 5754 5756 5759 5762 5764 5764 5763 5763 5765 5765 5762 5759 5756 5754 5753 5750 5745 5740 5737 5732 5727 5722 5718 5715 5711 5706 5701 5695 5692 5691 5691 5690 5687 5684 5677 5669 5666 5663 5663 5660 5658 5657
5737 5741 5743 5746 5749 5752 5752 5751 5752 5752 5752 5751 5748 5746 5744 5742 5739 5736 5732 5729 5724 5720 5716 5712 5707 5704 5700 5695 5689 5684 5682 5679 5679 5677 5670 5665 5660 5658 5657 5654 5651 5650 5652
5724 5728 5730 5732 5735 5739 5741 5741 5742 5741 5740 5738 5736 5733 5730 5727 5726 5726 5724 5721 5717 5712 5709 5705 5701 5698 5694 5690 5684 5679 5675 5670 5668 5665 5660 5654 5651 5650 5649 5646 5645 5645 5644
5711 5715 5717 5719 5723 5726 5728 5730 5730 5729 5726 5725 5723 5721 5719 5716 5713 5712 5710 5710 5707 5705 5700 5697 5694 5690 5686 5681 5676 5673 5670 5666 5662 5657 5653 5650 5647 5644 5643 5641 5639 5637 5634
5698 5701 5704 5706 5709 5713 5715 5717 5718 5717 5714 5712 5711 5711 5709 5706 5703 5702 5698 5694 5693 5689 5686 5684 5682 5679 5674 5668 5664 5660 5657 5653 5648 5647 5646 5643 5640 5637 5635 5632 5629 5626 5623